Terminal Aerodrome Forecast
Issued by NWS

Home | Current Version | Previous Version | Text Only | Print | Product List | Glossary On
Versions: 1 2 3 4 5 6 7 8 9 10 11 12 13 14 15 16 17
000
FTUS45 KREV 231024 AAA
TAFMMH
TAF AMD
KMMH 231024Z 2310/2406 34011KT P6SM VCSH SCT025 BKN035
     FM231600 10007KT P6SM VCSH SCT015 BKN025
     FM232000 25009KT P6SM VCSH SCT035 BKN060
     FM240300 31011KT P6SM SCT040 BKN070=

USA.gov is the U.S. government's official web portal to all federal, state and local government web resources and services.